Zurück zum Katalog

STARLINK-2499

AktivKommunikationVLEO
NORAD 48377·PAYLOAD·🇺🇸 United States

Gestartet May 4, 2021 von Cape Canaveral Space Force Station

Loading…

Nächste Überflüge (nächste 24 Stunden)

TLE

AktuellSource: CelesTrak SupGP

Epoche: Sep 15, 2026, 02:03 UTC

1 48377C 21038AA  26258.08590278 -.00009712  00000+0 -31238-3 0  2583
2 48377  53.1585 186.4548 0001401  78.7438 341.4510 15.31700552    15

Verfolge STARLINK-2499 in Echtzeit mit AllMySat

Download on the App Store